This is the latest recevied weather packets stored in our database for station/object HB9FHL-13. If no packets are shown the sender has not sent any weather packets the latest 10 day(s).
| Time | Temp. | Humidity | Pressure | Rain* | Wind** | Luminosity | Snow |
|---|---|---|---|---|---|---|---|
| 1787842905 | 27.78° C | - | 1010.9 hPa | 0 mm | - | - | - |
| 1787842608 | 27.78° C | - | 1015.8 hPa | 0 mm | - | - | - |
| 1787842605 | 27.78° C | - | 1015.8 hPa | 0 mm | - | - | - |
| 1787842304 | 27.78° C | - | 1009.8 hPa | 0 mm | - | - | - |
| 1787842008 | 27.78° C | - | 1011.6 hPa | 0 mm | - | - | - |
| 1787842004 | 27.78° C | - | 1011.6 hPa | 0 mm | - | - | - |
| 1787841708 | 27.22° C | - | 1006.2 hPa | 0 mm | - | - | - |
| 1787841703 | 27.22° C | - | 1006.2 hPa | 0 mm | - | - | - |
| 1787841406 | 27.78° C | - | 1010.6 hPa | 0 mm | - | - | - |
| 1787841402 | 27.78° C | - | 1010.6 hPa | 0 mm | - | - | - |
| 1787841104 | 27.78° C | - | 1010 hPa | 0 mm | - | - | - |
| 1787841100 | 27.78° C | - | 1010 hPa | 0 mm | - | - | - |
| 1787840803 | 27.78° C | - | 1012.4 hPa | 0 mm | - | - | - |
| 1787840799 | 27.78° C | - | 1012.4 hPa | 0 mm | - | - | - |
| 1787840499 | 27.22° C | - | 1013.3 hPa | 0 mm | - | - | - |
| 1787840198 | 26.67° C | - | 1011.6 hPa | 0 mm | - | - | - |
| 1787839901 | 27.22° C | - | 1011.5 hPa | 0 mm | - | - | - |
| 1787839898 | 27.22° C | - | 1011.5 hPa | 0 mm | - | - | - |
| 1787839597 | 28.33° C | - | 1015.2 hPa | 0 mm | - | - | - |
| 1787839386 | 27.78° C | - | 1013 hPa | 0 mm | - | - | - |
| 1787839382 | 27.78° C | - | 1013 hPa | 0 mm | - | - | - |
| 1787839297 | 27.78° C | - | 1013 hPa | 0 mm | - | - | - |
| 1787838996 | 27.78° C | - | 1007.6 hPa | 0 mm | - | - | - |
| 1787838695 | 27.22° C | - | 1011.4 hPa | 0 mm | - | - | - |
| 1787838394 | 26.67° C | - | 1011.3 hPa | 0 mm | - | - | - |
* Rain since midnight (hover to see other rain measurements)
** Current wind speed in m/s (hover to see current wind gust speed)